星链-31076 (STARLINK-31076 )

导读 | 星芒AI

STARLINK-31076 是 SpaceX 星链计划中的一颗低轨道通信卫星,属于星链第三代卫星群。该卫星于2023年发射,旨在为全球用户提供高速互联网服务。它运行在约550公里高的近地轨道,具备先进的通信技术和自动避撞系统,以提高网络覆盖和运行安全性。作为星链系统的重要组成部分,STARLINK-31076 有助于提升偏远地区的网络连接质量,并支持星链在全球范围内的持续扩展。

基本信息
目录编号:
58736
目录名称:
STARLINK-31076
国际标识:
2024-005J
轨道中心:
EARTH
卫星名称:
星链-31076
卫星全名:
星链-31076 (STARLINK-31076 )
卫星状态:
在轨 (已飞行712 天)
发射日期:
2024-01-07 UTC
国别 :
美国 (US)
星等 :
--
轨道信息
数据来源 国际轨道数据 AOE轨道数据
星历时间 2025-12-19T14:54:39+0800
14小时前
查看轨道信息
2025-12-18T20:00:00+0800
1天前
查看轨道信息
半长轴 6937.263km 6937.242km
偏心率 0.0001179 0.0001787
轨道倾角 43.004° 43.003°
近地点辐角 274.623° 276.964°
升交点赤经 298.798° 303.081°
平近点角 85.448° 136.150°
近地点 558.308km 557.867km
远地点 559.944km 560.347km
周期 95.839分钟 95.838分钟
每日圈数 15.025212 15.025278
详细信息
固有亮度:
5
最大亮度:
0.3
卫星平台:
Starlink v2.0 mini
覆盖范围:
全球
运营商:
太空探索技术公司
运营商所在国:
美国
制造商(研发单位):
太空探索技术公司
制造商所在国:
美国
使用方式:
暂无
卫星简介
星链(Starlink)计划是由太空探索技术公司(SpaceX)提出的一个巨型低轨卫星互联网星座项目,计划在2019年至2024年间在太空搭建由约1.2万颗卫星组成的“星链”网络,其中1584颗将部署在地球上空550千米处的近地轨道,并从2020年开始工作。该卫星仍在工作。
2D轨道图
3D轨道图
轨道高度分析图
轨道倾角分析图
轨道综合分析图
查看轨道综合分析图